Regional Weather Roundup
Issued by NWS Huntsville, AL

Home | Current Version | Previous Version | Text Only | Print | Product List | Glossary On
Versions: 1 2 3 4 5 6 7 8 9 10 11 12 13 14 15 16 17 18 19 20 21 22 23 24 25 26 27 28
000
ASUS44 KHUN 261310
RWRHUN

WEATHER ROUNDUP FOR THE TENNESSEE VALLEY
NATIONAL WEATHER SERVICE HUNTSVILLE AL
800 AM CDT SUN MAR 26 2017

ALZ001>004-261400-
NORTHWEST ALABAMA

CITY           SKY/WX    TMP DP  RH WIND       PRES   REMARKS
COURTLAND HCN    N/A     59 N/A N/A S9          N/A
RUSSELLVILLE     N/A     57 N/A N/A MISG        N/A
SHOALS AIRPORT CLOUDY    60  56  86 S6        30.02R
SHOALS TVA RES   N/A     59 N/A N/A MISG        N/A
$$

ALZ005>007-016-261400-
NORTH CENTRAL ALABAMA

CITY           SKY/WX    TMP DP  RH WIND       PRES   REMARKS
CULLMAN AG STN   N/A     59 N/A N/A S3          N/A
DECATUR AP     CLOUDY    60  57  89 S8        30.03R
HUNTSVILLE AP  CLOUDY    61  58  90 S8        30.03R
MERIDIANVILLE  CLOUDY    59  54  82 CALM      30.03S
REDSTONE ARSN  CLOUDY    59  58  95 S8        30.02R
VINEMONT AP    CLOUDY    58  57  94 S12       30.06R
$$

ALZ008>010-261400-
NORTHEAST ALABAMA

CITY           SKY/WX    TMP DP  RH WIND       PRES   REMARKS
ALBERTVILLE    CLOUDY    59  59 100 S10       30.05R
FORT PAYNE     CLOUDY    59  54  82 S5        30.07R
SCOTTSBORO AP  CLOUDY    61  57  88 SW8       30.06R
SCOTTSBORO HCN   N/A     59 N/A N/A MISG        N/A
VALLEY HEAD      N/A     59 N/A N/A MISG        N/A
$$

TNZ076-096-097-261400-
SOUTHEASTERN MIDDLE TENNESSEE

CITY           SKY/WX    TMP DP  RH WIND       PRES   REMARKS
TULLAHOMA      CLOUDY    57  55  94 S8        30.04R
WINCHESTER     PTSUNNY   59  55  88 S7        30.04R
$$

...SURROUNDING SITES...

CITY           SKY/WX    TMP DP  RH WIND       PRES   REMARKS
ATLANTA        MOSUNNY   60  59  96 SE8       30.11R
ANNISTON       CLOUDY    63  59  87 CALM      30.09R
BIRMINGHAM     CLOUDY    61  59  93 S5        30.09R
CHATTANOOGA    CLOUDY    61  57  87 SE6       30.07R
DALTON         CLOUDY    59  59 100 CALM      30.10R
GADSDEN        CLOUDY    60  58  92 S5        30.08R
GOLDEN TRNGL   FOG       61  55  82 S12       29.97R VSB 1
HALEYVILLE     CLOUDY    57  57 100 S8        30.04R FOG
JACKSON TN     CLOUDY    60  58  92 S6        29.96S
MEMPHIS        PTSUNNY   59  56  89 S6        29.96R
NASHVILLE      CLOUDY    59  57  93 S8        30.00R
OXFORD MS      CLOUDY    57  55  94 S7        30.00R FOG
ROME           CLOUDY    60  58  92 CALM      30.09R
SAVANNAH       CLOUDY    59  57  94 S8        29.98R
TUPELO         CLOUDY    59  57  93 SE8       29.99R FOG
TUSCALOOSA     CLOUDY    60  59  96 S9        30.05R
$$

...GULF COAST WEATHER...

CITY           SKY/WX    TMP DP  RH WIND       PRES   REMARKS
GULFPORT       CLOUDY    71  68  90 S5        30.03R
PASCAGOULA     PTSUNNY   65  62  90 CALM      30.04R
MOBILE         PTSUNNY   67  65  93 SE7       30.06R
GULF SHORES    CLOUDY    68  68 100 SE7       30.05R
PENSACOLA      SUNNY     70  65  84 S3        30.06R
DESTIN         CLOUDY    70  69  97 SE10      30.08R
PANAMA CITY    CLOUDY    67  64  87 SE9       30.09R
APPALACHICOLA  CLOUDY    71  65  81 SE7       30.10R
$$





USA.gov is the U.S. government's official web portal to all federal, state and local government web resources and services.